Weather Roundup
Issued by NWS

Home | Current Version | Previous Version | Graphics & Text | Print | Product List | Glossary Off
Versions: 1 2 3 4 5 6 7 8 9 10 11 12 13 14 15 16 17 18 19 20 21 22 23 24 25 26 27 28 29 30 31 32 33 34 35 36 37 38 39 40 41 42 43 44 45 46 47 48 49 50

000
NZUS93 KARX 241710
HRRWXR

CURRENT HOURLY OBSERVATIONS ACROSS
MUCH OF THE UPPER MISSISSIPPI VALLEY
NATIONAL WEATHER SERVICE LA CROSSE WI
1100 AM CST TUE JAN 24 2017


...SOUTHEAST MINNESOTA...


CITY           SKY/WX    TMP DP  RH WIND       PRES   REMARKS
ROCHESTER      CLOUDY    30  28  92 CALM      29.86S FOG
ROCHESTER/MAYO CLOUDY    32  28  87 CALM      29.87S
WINONA         CLOUDY    34  28  80 CALM      29.90S
AUSTIN         CLOUDY    30  27  86 NE6       29.85F WCI  24
ALBERT LEA     CLOUDY    30  28  93 NE9       29.83F WCI  22
DODGE CENTER   CLOUDY    30  28  93 MISG      29.86S FOG
PRESTON        CLOUDY    29  26  86 E3        29.87S
OWATONNA       CLOUDY    30  27  86 E5        29.87S FOG     WCI  25
FARIBAULT      NOT AVBL
$$

...ELSEWHERE IN MINNESOTA...


CITY           SKY/WX    TMP DP  RH WIND       PRES   REMARKS
MINNEAPOLIS    CLOUDY    32  25  75 NE9       29.88S WCI  24
INTNL FALLS    CLOUDY    27  22  81 SW6       29.87S WCI  20
DULUTH         CLOUDY    31  25  78 NW6       29.85S WCI  25
RED WING       CLOUDY    34  27  75 E6        29.88S WCI  29
REDWOOD FALLS  CLOUDY    31  26  82 E8        29.86S WCI  23
MANKATO        CLOUDY    31  27  85 E8        29.86F WCI  23
WORTHINGTON    CLOUDY    29  28  96 E17       29.79F WCI  17
FAIRMONT       CLOUDY    30  27  88 E12       29.83F WCI  20
$$

...SOUTHWEST WISCONSIN...


CITY           SKY/WX    TMP DP  RH WIND       PRES   REMARKS
LA CROSSE      CLOUDY    36  30  79 NW3       29.89R
PRAIRIE DU CHI CLOUDY    34  31  89 CALM      29.88F
BOSCOBEL       CLOUDY    37  32  82 CALM      29.88F
LONE ROCK      CLOUDY    37  32  82 CALM      29.88F
PLATTEVILLE    CLOUDY    34  33  98 S3        29.87F
FORT MC COY    CLOUDY    33  32  96 CALM      29.89R FOG
CAMP DOUGLAS   CLOUDY    36  32  87 SW3       29.87R
MAUSTON-NEW LI CLOUDY    36  31  82 CALM      29.87R
VIROQUA        CLOUDY    33  32  96 CALM      29.86R
WIS DELLS      CLOUDY    35  30  83 CALM      29.87S
$$

...ELSEWHERE IN WISCONSIN...


CITY           SKY/WX    TMP DP  RH WIND       PRES   REMARKS
MILWAUKEE      CLOUDY    38  33  82 NW8       29.87F WCI  32
MADISON        CLOUDY    37  31  78 N6        29.88S WCI  32
GREEN BAY      CLOUDY    42  37  82 NW8       29.85F
EAU CLAIRE     CLOUDY    33  31  92 CALM      29.86F
BLACK RVR FLS  CLOUDY    34  33  95 CALM      29.87S
MEDFORD        CLOUDY    32  29  90 NE6       29.83F WCI  26
WAUSAU         CLOUDY    34  29  82 N5        29.83F WCI  30
WIS RAPIDS     CLOUDY    36  30  79 N8        29.86F WCI  30
MARSHFIELD     CLOUDY    34  29  82 N7        29.83F WCI  28
RICE LAKE      CLOUDY    33  31  94 CALM      29.88F
$$

...NORTHEAST IOWA...


CITY           SKY/WX    TMP DP  RH WIND       PRES   REMARKS
WATERLOO       CLOUDY    33  28  81 E10       29.86S WCI  25
DUBUQUE        CLOUDY    33  29  85 E3        29.87F
DECORAH        CLOUDY    32  28  86 VRB3      29.85F
MASON CITY     CLOUDY    30  27  88 E13       29.84F WCI  20
CHARLES CITY   CLOUDY    32  30  93 E10       29.85F WCI  24
OELWEIN        CLOUDY    32  30  93 E9        29.86S WCI  24
$$

...ELSEWHERE IN IOWA...


CITY           SKY/WX    TMP DP  RH WIND       PRES   REMARKS
DES MOINES     CLOUDY    32  29  88 E9        29.83F WCI  24
IOWA CITY      CLOUDY    34  29  82 E7        29.90S WCI  28
FORT DODGE     CLOUDY    30  27  86 E15       29.82F WCI  19
MARSHALLTOWN   CLOUDY    32  29  88 E12       29.83F WCI  23
CEDAR RAPIDS   CLOUDY    31  28  89 E8        29.86F FOG     WCI  23
$$

...NORTHERN ILLINOIS...


CITY           SKY/WX    TMP DP  RH WIND       PRES   REMARKS
CHICAGO-OHARE  CLOUDY    35  31  85 N6        29.89S WCI  30
CHICAGO-MIDWAY CLOUDY    37  31  78 NW5       29.90R WCI  33
MOLINE         CLOUDY    37  30  75 SE8       29.88F WCI  31
ROCKFORD       CLOUDY    36  30  79 CALM      29.91S
PEORIA         CLOUDY    38  33  82 E5        29.90F WCI  34
$$

NOTE: "FAIR" INDICATES FEW OR NO CLOUDS BELOW 12,000 FEET WITH NO
SIGNIFICANT WEATHER AND/OR OBSTRUCTIONS TO VISIBILITY. WIND
SPEEDS ARE IN MILES-PER-HOUR.




USA.gov is the U.S. government's official web portal to all federal, state and local government web resources and services.